This demonstration page uses our WeatherBlox Daily Observations layout. Learn more.

Left ArrowRight Arrow

39.51506, -84.39828

Hourly Observations for January 11, 2021

Temp ( °F °C ) Dew Point ( °F °C ) Humidity (%) Winds ( mph kmh ) Pressure ( in mb ) Visibility ( mi km ) Precip ( " mm )
12:15 am 00:15 Mostly Cloudy with Mist and Fog 27 -3 25 -3.9 94 94 N N/A 30.37 1029 7 11.26538 N/A
12:35 am 00:35 Cloudy with Mist and Fog 27 -2.9 25 -3.8 94 94 N N/A 30.36 1028 7 11.26538 N/A
12:55 am 00:55 Cloudy 27 -2.7 25 -3.8 92 92 N N/A 30.35 1028 7 11.26538 N/A
1:15 am 01:15 Cloudy with Mist and Fog 28 -2.5 26 -3.4 94 94 N N/A 30.35 1028 7 11.26538 N/A
1:35 am 01:35 Cloudy with Mist and Fog 28 -2.3 26 -3.2 94 94 N N/A 30.37 1029 7 11.26538 N/A
1:55 am 01:55 Cloudy 28 -2.1 26 -3.3 92 92 N N/A 30.37 1028 7 11.26538 N/A
2:15 am 02:15 Cloudy 28 -2 26 -3.1 92 92 N N/A 30.37 1028 7 11.26538 N/A
2:35 am 02:35 Cloudy 28 -2 27 -3 93 93 N N/A 30.36 1028 7 11.26538 N/A
2:55 am 02:55 Cloudy 29 -1.8 26 -3.4 89 89 N N/A 30.35 1028 7 11.26538 N/A
3:15 am 03:15 Cloudy 29 -1.8 26 -3.4 89 89 N N/A 30.35 1028 7 11.26538 N/A
3:35 am 03:35 Cloudy 29 -1.8 26 -3.4 89 89 N N/A 30.35 1028 7 11.26538 N/A
3:55 am 03:55 Cloudy 29 -1.8 26 -3.2 90 90 N N/A 30.35 1028 7 11.26538 N/A
4:15 am 04:15 Cloudy with Mist and Fog 29 -1.7 27 -3 91 91 NW 3 6 30.34 1027 7 11.26538 N/A
4:35 am 04:35 Cloudy with Mist and Fog 29 -1.8 27 -2.9 92 92 N N/A 30.34 1027 7 11.26538 N/A
4:55 am 04:55 Cloudy with Mist and Fog 29 -1.8 27 -2.8 93 93 NW 5 7 30.34 1027 7 11.26538 N/A
5:15 am 05:15 Cloudy 29 -1.7 27 -3 91 91 WSW 5 7 30.34 1027 7 11.26538 N/A
5:35 am 05:35 Cloudy 29 -1.7 26 -3.1 90 90 SSW 5 7 30.34 1027 7 11.26538 N/A
5:55 am 05:55 Cloudy with Mist and Fog 29 -1.7 27 -2.9 92 92 WSW 5 7 30.34 1027 7 11.26538 N/A
6:15 am 06:15 Cloudy 29 -1.6 27 -3 90 90 WSW 3 6 30.35 1028 7 11.26538 N/A
6:35 am 06:35 Cloudy 29 -1.7 27 -3 91 91 SW 5 7 30.36 1028 7 11.26538 N/A
6:55 am 06:55 Cloudy 29 -1.4 26 -3.2 88 88 WSW 6 9 30.37 1028 7 11.26538 N/A
7:15 am 07:15 Cloudy 29 -1.5 26 -3.2 88 88 SW 7 11 30.38 1029 7 11.26538 N/A
7:35 am 07:35 Cloudy 29 -1.6 25 -3.8 85 85 WNW 8 13 30.38 1029 10 16.0934 N/A
7:55 am 07:55 Cloudy 29 -1.7 25 -3.8 86 86 W 8 13 30.37 1028 10 16.0934 N/A
8:15 am 08:15 Cloudy 29 -1.7 25 -3.9 85 85 WNW 8 13 30.37 1028 7 11.26538 N/A
8:35 am 08:35 Cloudy 29 -1.8 24 -4.2 84 84 WNW 7 11 30.37 1028 7 11.26538 N/A
8:55 am 08:55 Cloudy 29 -1.8 24 -4.5 82 82 WNW 7 11 30.36 1028 10 16.0934 N/A
9:15 am 09:15 Cloudy 29 -1.8 23 -5.2 78 78 WNW 8 13 30.36 1028 10 16.0934 N/A
9:35 am 09:35 Cloudy 29 -1.9 22 -5.7 76 76 WNW 7 11 30.37 1028 10 16.0934 N/A
9:55 am 09:55 Cloudy 28 -2 22 -5.7 76 76 W 8 13 30.38 1029 10 16.0934 N/A
10:15 am 10:15 Cloudy 28 -2 21 -6 74 74 NW 7 11 30.4 1029 10 16.0934 N/A
10:35 am 10:35 Cloudy 29 -1.9 22 -5.8 75 75 W 8 13 30.4 1029 10 16.0934 N/A
10:55 am 10:55 Cloudy 29 -1.9 21 -5.9 74 74 W 10 17 30.4 1029 10 16.0934 N/A
11:15 am 11:15 Cloudy 29 -1.8 21 -6 73 73 SSW 8 13 30.39 1029 10 16.0934 N/A
11:35 am 11:35 Cloudy 29 -1.7 21 -5.9 73 73 WSW 5 7 30.38 1029 10 16.0934 N/A
11:55 am 11:55 Cloudy 29 -1.6 21 -6 72 72 WSW 9 15 30.37 1028 10 16.0934 N/A
12:15 pm 12:15 Cloudy 29 -1.5 21 -6 72 72 WSW 10 17 30.35 1028 10 16.0934 N/A
12:35 pm 12:35 Cloudy 29 -1.6 20 -6.4 70 70 WSW 9 15 30.34 1027 10 16.0934 N/A
12:55 pm 12:55 Cloudy 29 -1.6 20 -6.5 70 70 WSW 12 19 30.34 1027 10 16.0934 N/A
1:15 pm 13:15 Cloudy 29 -1.7 20 -6.6 70 70 W 10 17 30.34 1027 10 16.0934 N/A
1:35 pm 13:35 Cloudy 29 -1.8 20 -6.6 70 70 WSW 9 15 30.33 1027 10 16.0934 N/A
1:55 pm 13:55 Cloudy 29 -1.7 20 -6.6 70 70 SW 9 15 30.33 1027 10 16.0934 N/A
2:15 pm 14:15 Cloudy 29 -1.7 20 -6.6 70 70 W 9 15 30.33 1027 10 16.0934 N/A
2:35 pm 14:35 Cloudy 29 -1.6 20 -6.4 70 70 W 10 17 30.33 1027 10 16.0934 N/A
2:55 pm 14:55 Cloudy 29 -1.6 20 -6.4 70 70 W 10 17 30.33 1027 10 16.0934 N/A
3:15 pm 15:15 Cloudy 29 -1.6 20 -6.5 70 70 W 6 9 30.32 1027 10 16.0934 N/A
3:35 pm 15:35 Cloudy 29 -1.6 20 -6.7 69 69 SW 8 13 30.33 1027 10 16.0934 N/A
3:55 pm 15:55 Cloudy 29 -1.5 20 -6.6 69 69 WSW 10 17 30.33 1027 10 16.0934 N/A
4:15 pm 16:15 Cloudy 29 -1.6 20 -6.7 69 69 WSW 7 11 30.33 1027 10 16.0934 N/A
4:35 pm 16:35 Cloudy 29 -1.7 20 -6.7 69 69 WSW 7 11 30.33 1027 10 16.0934 N/A
4:55 pm 16:55 Cloudy 29 -1.9 20 -6.6 71 71 SW 5 7 30.33 1027 10 16.0934 N/A
5:15 pm 17:15 Cloudy 29 -1.8 20 -6.4 71 71 SW 6 9 30.33 1027 10 16.0934 N/A
5:35 pm 17:35 Cloudy 28 -2 20 -6.4 72 72 SW 7 11 30.33 1027 10 16.0934 N/A
5:55 pm 17:55 Cloudy 28 -2 20 -6.4 72 72 WSW 6 9 30.33 1027 10 16.0934 N/A
6:15 pm 18:15 Cloudy 28 -2.1 21 -6.1 74 74 WSW 5 7 30.33 1027 10 16.0934 N/A
6:35 pm 18:35 Cloudy 28 -2.1 21 -6.3 73 73 WSW 5 7 30.33 1027 10 16.0934 N/A
6:55 pm 18:55 Cloudy 28 -2.3 21 -6.3 74 74 W 7 11 30.33 1027 10 16.0934 N/A
7:15 pm 19:15 Cloudy 27 -2.6 20 -6.5 75 75 WSW 7 11 30.33 1027 10 16.0934 N/A
7:35 pm 19:35 Partly Cloudy 27 -3 21 -6.3 78 78 WSW 8 13 30.32 1027 10 16.0934 N/A
7:55 pm 19:55 Clear 25 -3.8 20 -6.4 82 82 SW 8 13 30.33 1027 10 16.0934 N/A
8:15 pm 20:15 Mostly Cloudy 25 -3.7 21 -6.1 84 84 WSW 6 9 30.33 1027 10 16.0934 N/A
8:35 pm 20:35 Cloudy 27 -3 22 -5.7 82 82 SW 7 11 30.32 1027 10 16.0934 N/A
8:55 pm 20:55 Cloudy 27 -2.9 22 -5.8 81 81 SW 10 17 30.32 1027 10 16.0934 N/A
9:15 pm 21:15 Cloudy 27 -2.9 22 -5.7 81 81 WSW 10 17 30.32 1027 10 16.0934 N/A
9:35 pm 21:35 Cloudy 27 -3 22 -5.8 81 81 WSW 9 15 30.31 1027 10 16.0934 N/A
9:55 pm 21:55 Cloudy 26 -3.1 21 -5.9 81 81 WSW 8 13 30.31 1027 10 16.0934 N/A
10:15 pm 22:15 Mostly Cloudy 26 -3.6 21 -6.2 82 82 W 7 11 30.32 1027 10 16.0934 N/A
10:35 pm 22:35 Cloudy 26 -3.4 21 -6 82 82 WSW 6 9 30.32 1027 10 16.0934 N/A
10:55 pm 22:55 Cloudy 26 -3.3 21 -5.9 82 82 WSW 7 11 30.31 1027 10 16.0934 N/A
11:15 pm 23:15 Cloudy 26 -3.3 21 -5.9 82 82 WSW 5 7 30.31 1027 10 16.0934 N/A
11:35 pm 23:35 Cloudy 26 -3.3 22 -5.8 83 83 W 5 7 30.31 1027 10 16.0934 N/A
11:55 pm 23:55 Cloudy 26 -3.2 22 -5.8 82 82 W 5 7 30.31 1027 10 16.0934 N/A

Powered by AerisWeather